Simultaneous Nadir Overpasses (SNOs) Predictions

Prediction of SNOs between GOES-16 and LANDSAT-8 Satellite Orbit:

Table of predicted SNOs for the next 14.0 days since TLE Epoch: 5/7/2022
Index Date Time (GOES-16) GOES-16 Lat,Lon LANDSAT-8 Lat,Lon Distance(km) Time Diff (sec)
1 05/08/2022 15:09:01 0.05, -75.21 -0.20, -73.92 146.24 80
2 05/09/2022 03:30:26 -0.05, -75.20 -0.87, -79.11 445.12 80
3 05/10/2022 14:56:51 0.05, -75.22 -0.85, -70.97 483.75 80
4 05/11/2022 03:18:16 -0.04, -75.21 -0.22, -76.16 107.43 80
5 05/13/2022 03:03:25 -0.04, -75.23 0.38, -73.20 231.03 80
6 05/13/2022 15:24:41 0.04, -75.25 0.70, -78.36 353.44 80
7 05/15/2022 15:12:30 0.04, -75.28 0.09, -75.40 14.77 80
8 05/17/2022 15:03:00 0.03, -75.30 -0.60, -72.45 324.18 80
9 05/18/2022 03:24:24 -0.03, -75.29 -0.52, -77.64 266.61 80
10 05/20/2022 03:09:33 -0.02, -75.32 0.12, -74.69 72.45 80
